Date String (YYYY-MM-DD hh:mm:ss) UTC,Instrument flags,Ambient pressure (hPa),Sample flow (lpm),Bypass flow (lpm),Sample temperature (°C),Ambient temperature (°C),ASC tube jacket temperature (°C),LED temperature (°C),Box temperature (°C),Sample RH (%),Span deviation,Mass concentration (μg/m³),Mass concentration (μg/m³),Mass concentration (μg/m³)
DateTimeUTC,F1_M11,P_M11,Q1_M11,Q2_M11,T1_M11,T2_M11,T3_M11,T4_M11,T5_M11,U1_M11,ZSPAN_M11,X0_M11,X2_M11,X1_M11
2022-09-17 01:00:00,,0823.9,5.01,0.00,30.0,28.6,00.0,38.7,31.9,17.0,0000.0,0002.19,0001.70,0001.47
2022-09-17 01:01:00,,0823.8,4.99,0.00,30.0,28.7,00.0,38.7,31.9,16.9,0000.0,0002.18,0001.70,0001.47
2022-09-17 01:02:00,,0823.8,5.01,0.00,30.0,28.7,00.0,38.7,31.9,17.0,0000.0,0002.48,0001.69,0001.47
2022-09-17 01:03:00,,0823.8,5.00,0.00,30.0,28.8,00.0,38.7,31.9,17.1,0000.0,0002.96,0001.72,0001.47
2022-09-17 01:04:00,,0823.8,5.00,0.00,30.1,28.8,00.0,38.7,32.0,17.1,0000.0,0003.07,0001.76,0001.49
2022-09-17 01:05:00,,0823.8,5.00,0.00,30.1,28.9,00.0,38.8,32.0,17.2,0000.0,0003.08,0001.75,0001.48
2022-09-17 01:06:00,,0823.7,5.01,0.00,30.1,28.9,00.0,38.8,32.0,17.2,0000.0,0003.04,0001.73,0001.48
2022-09-17 01:07:00,,0823.7,4.99,0.00,30.1,29.0,00.0,38.8,32.0,17.2,0000.0,0003.01,0001.74,0001.49
2022-09-17 01:08:00,,0823.7,5.01,0.00,30.2,29.0,00.0,38.8,32.1,17.3,0000.0,0003.06,0001.76,0001.50
2022-09-17 01:09:00,,0823.7,4.99,0.00,30.2,29.1,00.0,38.9,32.1,17.3,0000.0,0003.04,0001.75,0001.51
2022-09-17 01:10:00,,0823.7,5.00,0.00,30.2,28.9,00.0,38.9,32.1,17.3,0000.0,0003.03,0001.75,0001.52
2022-09-17 01:11:00,,0823.7,5.00,0.00,30.2,27.6,00.0,38.9,32.0,17.1,0000.0,0003.03,0001.75,0001.51
2022-09-17 01:12:00,,0823.7,5.00,0.00,30.2,26.9,00.0,38.8,32.0,17.0,0000.0,0003.02,0001.74,0001.51
2022-09-17 01:13:00,,0823.7,5.00,0.00,30.1,27.0,00.0,38.8,31.8,16.8,0000.0,0002.77,0001.73,0001.52
2022-09-17 01:14:00,,0823.7,4.99,0.00,30.0,27.3,00.0,38.8,31.7,16.6,0000.0,0002.13,0001.69,0001.51
2022-09-17 01:15:00,,0823.7,4.99,0.00,30.0,27.6,00.0,38.7,31.7,16.7,0000.0,0002.01,0001.67,0001.52
2022-09-17 01:16:00,,0823.7,5.01,0.00,30.0,27.8,00.0,38.7,31.7,16.7,0000.0,0001.99,0001.67,0001.52
2022-09-17 01:17:00,,0823.7,5.01,0.00,30.0,28.0,00.0,38.7,31.7,16.8,0000.0,0002.02,0001.70,0001.54
2022-09-17 01:18:00,,0823.8,4.98,0.00,30.0,28.2,00.0,38.7,31.8,16.9,0000.0,0002.01,0001.69,0001.54
2022-09-17 01:19:00,,0823.7,5.01,0.00,30.0,28.4,00.0,38.7,31.8,16.8,0000.0,0001.98,0001.69,0001.53
2022-09-17 01:20:00,,0823.7,4.99,0.00,30.0,28.5,00.0,38.7,31.8,16.5,0000.0,0001.96,0001.68,0001.52
2022-09-17 01:21:00,,0823.7,5.01,0.00,30.0,28.5,00.0,38.7,31.8,16.3,0000.0,0001.98,0001.69,0001.53
2022-09-17 01:22:00,,0823.8,4.99,0.00,30.0,28.6,00.0,38.7,31.8,16.4,0000.0,0002.07,0001.73,0001.54
2022-09-17 01:23:00,,0823.8,5.00,0.00,30.0,28.6,00.0,38.7,31.8,16.4,0000.0,0002.10,0001.75,0001.55
2022-09-17 01:24:00,,0823.8,5.00,0.00,30.0,28.7,00.0,38.7,31.9,16.5,0000.0,0002.11,0001.76,0001.55
2022-09-17 01:25:00,,0823.8,4.99,0.00,30.0,28.8,00.0,38.8,31.9,16.5,0000.0,0002.39,0001.79,0001.56
2022-09-17 01:26:00,,0823.8,5.00,0.00,30.1,28.8,00.0,38.8,32.0,16.6,0000.0,0002.76,0001.79,0001.55
2022-09-17 01:27:00,,0823.9,5.01,0.00,30.1,28.9,00.0,38.8,32.0,16.8,0000.0,0002.85,0001.81,0001.56
2022-09-17 01:28:00,,0823.9,4.99,0.00,30.1,28.9,00.0,38.8,32.0,16.8,0000.0,0002.87,0001.81,0001.55
2022-09-17 01:29:00,,0823.9,5.00,0.00,30.1,29.0,00.0,38.8,32.0,16.8,0000.0,0002.86,0001.81,0001.55
2022-09-17 01:30:00,,0823.9,5.00,0.00,30.2,29.0,00.0,38.8,32.1,16.8,0000.0,0002.96,0001.82,0001.55
2022-09-17 01:31:00,,0823.8,4.99,0.00,30.2,29.1,00.0,38.9,32.1,16.8,0000.0,0003.01,0001.83,0001.56
2022-09-17 01:32:00,,0823.8,4.99,0.00,30.2,28.9,00.0,38.9,32.1,16.8,0000.0,0002.99,0001.81,0001.55
2022-09-17 01:33:00,,0823.8,5.00,0.00,30.2,27.5,00.0,38.9,32.0,16.8,0000.0,0002.98,0001.78,0001.54
2022-09-17 01:34:00,,0823.8,5.00,0.00,30.2,26.9,00.0,38.8,32.0,16.6,0000.0,0002.96,0001.75,0001.53
2022-09-17 01:35:00,,0823.8,5.00,0.00,30.1,27.0,00.0,38.8,31.9,16.7,0000.0,0002.92,0001.72,0001.53
2022-09-17 01:36:00,,0823.8,5.00,0.00,30.1,27.3,00.0,38.8,31.8,16.6,0000.0,0002.79,0001.71,0001.52
2022-09-17 01:37:00,,0823.8,5.00,0.00,30.0,27.6,00.0,38.7,31.7,16.8,0000.0,0002.39,0001.70,0001.53
2022-09-17 01:38:00,,0823.8,4.99,0.00,30.0,27.9,00.0,38.7,31.7,16.8,0000.0,0002.34,0001.67,0001.53
2022-09-17 01:39:00,,0823.7,4.99,0.00,30.0,28.1,00.0,38.7,31.8,16.9,0000.0,0003.31,0001.67,0001.53
2022-09-17 01:40:00,,0823.7,5.00,0.00,30.0,28.3,00.0,38.7,31.7,16.9,0000.0,0003.52,0001.73,0001.53
2022-09-17 01:41:00,,0823.7,5.01,0.00,30.0,28.4,00.0,38.7,31.8,16.9,0000.0,0004.40,0001.71,0001.51
2022-09-17 01:42:00,,0823.8,4.99,0.00,30.0,28.5,00.0,38.7,31.8,16.9,0000.0,0004.84,0001.70,0001.51
2022-09-17 01:43:00,,0823.8,5.01,0.00,30.0,28.6,00.0,38.7,31.9,16.9,0000.0,0004.80,0001.69,0001.50
2022-09-17 01:44:00,,0823.8,5.00,0.00,30.0,28.7,00.0,38.7,31.9,17.0,0000.0,0004.76,0001.69,0001.50
2022-09-17 01:45:00,,0823.9,5.00,0.00,30.1,28.8,00.0,38.8,31.9,17.1,0000.0,0004.71,0001.68,0001.49
2022-09-17 01:46:00,,0823.9,5.00,0.00,30.1,28.9,00.0,38.8,32.0,17.1,0000.0,0004.70,0001.67,0001.48
2022-09-17 01:47:00,,0823.9,5.01,0.00,30.1,28.9,00.0,38.8,32.0,17.1,0000.0,0004.75,0001.68,0001.48
2022-09-17 01:48:00,,0823.9,4.99,0.00,30.1,29.0,00.0,38.8,32.0,17.1,0000.0,0004.73,0001.68,0001.48
2022-09-17 01:49:00,,0824.0,4.99,0.00,30.2,29.0,00.0,38.8,32.0,17.1,0000.0,0004.73,0001.67,0001.47
2022-09-17 01:50:00,,0823.9,5.01,0.00,30.2,29.1,00.0,38.8,32.1,17.1,0000.0,0004.92,0001.66,0001.46
2022-09-17 01:51:00,,0824.0,5.00,0.00,30.2,29.1,00.0,38.9,32.1,17.1,0000.0,0004.40,0001.61,0001.46
2022-09-17 01:52:00,,0824.0,4.99,0.00,30.3,29.1,00.0,38.9,32.1,17.0,0000.0,0003.99,0001.61,0001.47
2022-09-17 01:53:00,,0823.9,5.00,0.00,30.3,28.7,00.0,38.9,32.1,16.9,0000.0,0003.15,0001.63,0001.48
2022-09-17 01:54:00,,0824.0,5.01,0.00,30.3,27.3,00.0,38.9,32.1,16.5,0000.0,0003.24,0001.67,0001.49
2022-09-17 01:55:00,,0823.9,5.00,0.00,30.2,27.0,00.0,38.8,32.0,16.7,0000.0,0003.45,0001.72,0001.51
2022-09-17 01:56:00,,0824.0,4.99,0.00,30.1,27.2,00.0,38.8,31.9,17.0,0000.0,0003.67,0001.76,0001.53
2022-09-17 01:57:00,,0824.0,5.00,0.00,30.1,27.5,00.0,38.8,31.7,17.1,0000.0,0003.86,0001.78,0001.54
2022-09-17 01:58:00,,0824.0,5.01,0.00,30.0,27.7,00.0,38.8,31.8,16.8,0000.0,0004.07,0001.81,0001.56
2022-09-17 01:59:00,,0824.0,4.99,0.00,30.0,28.0,00.0,38.8,31.7,16.9,0000.0,0004.08,0001.84,0001.56
